Meridianville, AL

4:40 AM CDT on September 28, 2016 (GMT -0500)
Huntsville Madison

Weather History for KMDQ - November, 2012

Change the Weather History Date:

Sunday, November 4, 2012

  Actual Average (KHSV) Record (KHSV)
Temperature  
Mean Temperature 47 °F 57 °F  
Max Temperature 59 °F 68 °F 83 °F (1909)
Min Temperature 35 °F 45 °F 20 °F (1991)
Degree Days  
Heating Degree Days 18 9  
Month to date heating degree days 34  
Since 1 July heating degree days 185  
Cooling Degree Days 0 1  
Month to date cooling degree days 4  
Year to date cooling degree days 1944  
Moisture  
Dew Point 45 °F    
Average Humidity 85    
Maximum Humidity 100    
Minimum Humidity 58    
Precipitation  
Precipitation 0.00 in 0.15 in 2.50 in (1903)
Month to date precipitation 0.59  
Year to date precipitation 44.22  
Snow  
Snow 0.00 in - - ()
Month to date snowfall  
Since 1 July snowfall  
Since 1 September snowfall  
Snow Depth -    
Sea Level Pressure  
Sea Level Pressure 30.09 in    
Wind  
Wind Speed 4 mph (North)    
Max Wind Speed 13 mph    
Max Gust Speed 17 mph    
Visibility 9 miles    
Events      
T = Trace of Precipitation, MM = Missing Value Source: NWS Daily Summary

Daily Weather History Graph

Daily Weather History Graph

Search for Another Location

Airport or City:

Trip Planner

Search our weather history database for the weather conditions in past years. The results will help you decide how hot, cold, wet, or windy it might be!

Date:

Astronomy

Nov. 04, 2012 Rise Set
Actual Time 6:10 AM CST 4:48 PM CST
Civil Twilight 5:43 AM CST 5:15 PM CST
Nautical Twilight 5:13 AM CST 5:45 PM CST
Astronomical Twilight 4:44 AM CST 6:14 PM CST
Moon 9:28 PM CST (11/4) 10:51 AM CST (11/4)
Length of Visible Light 11h 31m
Length of Day
10h 38m
Waning Gibbous, 72% of the Moon is Illuminated
Nov 4
Waning Gibbous
Nov 6
Last Quarter
Nov 13
New
Nov 20
First Quarter
Nov 28
Full

Hourly Weather History & Observations

Time (CST) Temp. Windchill Dew Point Humidity Pressure Visibility Wind Dir Wind Speed Gust Speed Precip Events Conditions
12:15 AM 59.0 °F - 59.0 °F 100% 30.04 in 10.0 mi South 4.6 mph - N/A   Mostly Cloudy
12:35 AM 59.0 °F - 59.0 °F 100% 30.03 in 10.0 mi South 4.6 mph - N/A   Mostly Cloudy
12:55 AM 59.0 °F - 59.0 °F 100% 30.03 in 10.0 mi Calm Calm - N/A   Mostly Cloudy
1:15 AM 59.0 °F - 59.0 °F 100% 30.02 in 10.0 mi Calm Calm - N/A   Mostly Cloudy
1:35 AM 57.2 °F - 57.2 °F 100% 30.01 in 3.0 mi Calm Calm - N/A   Mostly Cloudy
1:55 AM 55.4 °F - 55.4 °F 100% 30.01 in 5.0 mi Calm Calm - N/A   Mostly Cloudy
1:15 AM 55.4 °F - 55.4 °F 100% 30.02 in 4.0 mi Calm Calm - N/A   Mostly Cloudy
1:35 AM 57.2 °F - 57.2 °F 100% 30.02 in 5.0 mi NNW 3.5 mph - N/A   Overcast
1:55 AM 57.2 °F - 57.2 °F 100% 30.02 in 7.0 mi NNW 3.5 mph - N/A   Overcast
2:15 AM 57.2 °F - 57.2 °F 100% 30.02 in 7.0 mi Calm Calm - N/A   Overcast
2:35 AM 55.4 °F - 55.4 °F 100% 30.02 in 10.0 mi NNW 8.1 mph - N/A   Overcast
2:55 AM 55.4 °F - 51.8 °F 88% 30.02 in 10.0 mi North 9.2 mph - N/A   Overcast
3:15 AM 55.4 °F - 51.8 °F 88% 30.02 in 10.0 mi North 5.8 mph - N/A   Overcast
3:35 AM 53.6 °F - 50.0 °F 88% 30.03 in 10.0 mi NNE 4.6 mph - N/A   Mostly Cloudy
3:55 AM 51.8 °F - 50.0 °F 94% 30.03 in 10.0 mi NNW 8.1 mph - N/A   Scattered Clouds
4:15 AM 50.0 °F - 48.2 °F 94% 30.04 in 10.0 mi NNW 5.8 mph - N/A   Scattered Clouds
4:35 AM 50.0 °F - 46.4 °F 87% 30.05 in 10.0 mi North 3.5 mph - N/A   Clear
4:55 AM 50.0 °F - 48.2 °F 94% 30.06 in 10.0 mi NNW 5.8 mph - N/A   Clear
5:15 AM 50.0 °F - 46.4 °F 87% 30.06 in 10.0 mi NNE 3.5 mph - N/A   Clear
5:35 AM 50.0 °F - 46.4 °F 87% 30.06 in 10.0 mi North 4.6 mph - N/A   Clear
5:55 AM 46.4 °F 42.9 °F 46.4 °F 100% 30.06 in 10.0 mi North 6.9 mph - N/A   Clear
6:15 AM 46.4 °F 42.4 °F 42.8 °F 87% 30.07 in 10.0 mi North 8.1 mph - N/A   Clear
6:35 AM 46.4 °F 41.9 °F 42.8 °F 87% 30.09 in 10.0 mi NNW 9.2 mph - N/A   Clear
6:55 AM 46.4 °F 42.9 °F 42.8 °F 87% 30.09 in 10.0 mi North 6.9 mph - N/A   Clear
7:15 AM 46.4 °F 41.9 °F 42.8 °F 87% 30.10 in 10.0 mi North 9.2 mph - N/A   Clear
7:35 AM 46.4 °F 42.4 °F 42.8 °F 87% 30.11 in 10.0 mi North 8.1 mph - N/A   Clear
7:55 AM 46.4 °F 43.5 °F 42.8 °F 87% 30.12 in 10.0 mi North 5.8 mph - N/A   Clear
8:15 AM 46.4 °F 42.9 °F 42.8 °F 87% 30.12 in 10.0 mi North 6.9 mph - N/A   Clear
8:35 AM 46.4 °F 42.4 °F 42.8 °F 87% 30.12 in 10.0 mi North 8.1 mph - N/A   Clear
8:55 AM 46.4 °F 42.4 °F 42.8 °F 87% 30.12 in 10.0 mi North 8.1 mph - N/A   Clear
9:15 AM 46.4 °F 43.5 °F 42.8 °F 87% 30.13 in 10.0 mi North 5.8 mph - N/A   Clear
9:35 AM 48.2 °F - 42.8 °F 82% 30.13 in 10.0 mi North 6.9 mph - N/A   Clear
9:55 AM 48.2 °F - 42.8 °F 82% 30.14 in 10.0 mi North 9.2 mph - N/A   Clear
10:15 AM 50.0 °F - 42.8 °F 76% 30.13 in 10.0 mi North 5.8 mph - N/A   Clear
10:35 AM 51.8 °F - 42.8 °F 71% 30.12 in 10.0 mi North 8.1 mph - N/A   Scattered Clouds
10:55 AM 51.8 °F - 42.8 °F 71% 30.12 in 10.0 mi North 4.6 mph - N/A   Clear
11:15 AM 51.8 °F - 42.8 °F 71% 30.11 in 10.0 mi North 5.8 mph - N/A   Clear
11:35 AM 53.6 °F - 44.6 °F 72% 30.11 in 10.0 mi NNW 3.5 mph - N/A   Clear
11:55 AM 55.4 °F - 42.8 °F 63% 30.10 in 10.0 mi North 6.9 mph - N/A   Clear
12:15 PM 55.4 °F - 42.8 °F 63% 30.09 in 10.0 mi NNE 8.1 mph - N/A   Clear
12:35 PM 55.4 °F - 42.8 °F 63% 30.09 in 10.0 mi North 6.9 mph - N/A   Clear
12:55 PM 55.4 °F - 42.8 °F 63% 30.09 in 10.0 mi North 6.9 mph - N/A   Clear
1:15 PM 55.4 °F - 42.8 °F 63% 30.09 in 10.0 mi North 8.1 mph - N/A   Clear
1:35 PM 55.4 °F - 42.8 °F 63% 30.08 in 10.0 mi NNW 9.2 mph - N/A   Clear
1:55 PM 57.2 °F - 42.8 °F 59% 30.08 in 10.0 mi NNW 11.5 mph - N/A   Clear
2:15 PM 55.4 °F - 42.8 °F 63% 30.08 in 10.0 mi NW 10.4 mph 16.1 mph N/A   Clear
2:35 PM 55.4 °F - 42.8 °F 63% 30.09 in 10.0 mi North 9.2 mph 17.3 mph N/A   Clear
2:55 PM 55.4 °F - 41.0 °F 58% 30.09 in 10.0 mi NNW 11.5 mph - N/A   Clear
3:15 PM 53.6 °F - 41.0 °F 62% 30.09 in 10.0 mi North 12.7 mph - N/A   Clear
3:35 PM 53.6 °F - 41.0 °F 62% 30.10 in 10.0 mi North 8.1 mph - N/A   Clear
3:55 PM 51.8 °F - 41.0 °F 67% 30.10 in 10.0 mi NNE 9.2 mph - N/A   Clear
4:15 PM 51.8 °F - 41.0 °F 67% 30.10 in 10.0 mi North 8.1 mph - N/A   Clear
4:35 PM 50.0 °F - 41.0 °F 71% 30.11 in 10.0 mi NNE 5.8 mph - N/A   Clear
4:55 PM 48.2 °F - 41.0 °F 76% 30.11 in 10.0 mi Calm Calm - N/A   Clear
5:15 PM 46.4 °F - 41.0 °F 81% 30.11 in 10.0 mi Calm Calm - N/A   Clear
5:35 PM 46.4 °F - 41.0 °F 81% 30.12 in 10.0 mi Calm Calm - N/A   Clear
5:55 PM 44.6 °F - 41.0 °F 87% 30.13 in 10.0 mi Calm Calm - N/A   Clear
6:15 PM 42.8 °F - 41.0 °F 93% 30.13 in 10.0 mi Calm Calm - N/A   Clear
6:35 PM 42.8 °F - 41.0 °F 93% 30.14 in 10.0 mi Calm Calm - N/A   Clear
6:55 PM 42.8 °F - 41.0 °F 93% 30.13 in 10.0 mi Calm Calm - N/A   Clear
7:15 PM 41.0 °F 39.0 °F 41.0 °F 100% 30.13 in 10.0 mi North 3.5 mph - N/A   Clear
7:35 PM 41.0 °F - 41.0 °F 100% 30.13 in 10.0 mi Calm Calm - N/A   Clear
7:55 PM 41.0 °F - 41.0 °F 100% 30.13 in 10.0 mi Calm Calm - N/A   Clear
8:15 PM 41.0 °F - 39.2 °F 93% 30.13 in 10.0 mi Calm Calm - N/A   Clear
8:35 PM 39.2 °F - 37.4 °F 93% 30.13 in 10.0 mi Calm Calm - N/A   Clear
8:55 PM 39.2 °F - 39.2 °F 100% 30.13 in 7.0 mi Calm Calm - N/A   Clear
9:15 PM 37.4 °F - 37.4 °F 100% 30.13 in 5.0 mi Calm Calm - N/A   Clear
9:35 PM 37.4 °F - 37.4 °F 100% 30.14 in 5.0 mi Calm Calm - N/A   Clear
9:55 PM 37.4 °F - 37.4 °F 100% 30.12 in 7.0 mi Calm Calm - N/A   Clear
10:15 PM 35.6 °F - 35.6 °F 100% 30.12 in 7.0 mi Calm Calm - N/A   Clear
10:35 PM 35.6 °F - 35.6 °F 100% 30.12 in 4.0 mi Calm Calm - N/A   Clear
10:55 PM 35.6 °F - 35.6 °F 100% 30.12 in 5.0 mi Calm Calm - N/A   Clear